Flag for Norway

Past Weather in Måløy, Norway — Yesterday and Last 2 Weeks

Now
50 °F

Passing clouds.


Feels Like: 49 °F
Forecast: 54 / 52 °F
Wind: 3 mph from East

Location: Floro
Current Time: Sep 19, 2020 at 11:54:20 am
Latest Report: Sep 19, 2020 at 11:20 am
Visibility: N/A
Pressure30.33 "Hg
Humidity: 100%
Dew Point: 50 °F
Location of MåløyLocation

Past Weather in Måløy — Graph

°F

Måløy Temperature Yesterday

Maximum temperature yesterday: 55 °F (at 11:50 am)
Minimum temperature yesterday: 46 °F (at 11:50 pm)
Average temperature yesterday: 51 °F

High & Low Weather Summary for the Past Weeks

 TemperatureHumidityPressure
High59 °F (Sep 4, 12:20 pm)100% (Sep 7, 8:50 pm)30.48 "Hg (Sep 7, 8:50 pm)
Low41 °F (Sep 17, 3:20 am)54% (Sep 10, 12:20 pm)29.42 "Hg (Sep 11, 4:20 pm)
Average53 °F84%29.88 "Hg
* Reported Sep 4 10:20 am — Sep 19 10:20 am, Måløy. Weather by CustomWeather, © 2020

Note: Actual official high and low records may vary slightly from our data, if they occured in-between our weather recording intervals... More about our weather records

Måløy Weather History for the Previous 24 Hours

Scroll right to see more
 ConditionsComfort  
Time TempWeatherWind HumidityBarometerVisibility
10:20 am
Sat, Sep 19
48 °FPassing clouds.6 mph94%30.36 "HgN/A
9:50 am48 °FPassing clouds.7 mph94%30.36 "HgN/A
9:20 am46 °FCool.7 mph100%30.36 "HgN/A
8:50 am46 °FCool.5 mph93%30.36 "HgN/A
8:20 am45 °FFog.6 mph100%30.36 "Hg4 mi
7:50 am45 °FQuite cool.8 mph100%30.36 "HgN/A
7:20 am45 °FFog.7 mph100%30.36 "Hg1 mi
6:20 am45 °FFog.6 mph100%30.36 "Hg0 mi
5:50 am45 °FLight fog.6 mph100%30.36 "Hg0 mi
5:20 am45 °FFog.5 mph100%30.36 "Hg4 mi
4:50 am45 °FLight fog.5 mph100%30.36 "Hg6 mi
4:20 am46 °FFog.6 mph93%30.36 "Hg2 mi
3:50 am45 °FPassing clouds.5 mph100%30.36 "Hg3 mi
3:20 am45 °FPassing clouds.6 mph100%30.36 "HgN/A
2:50 am46 °FCool.6 mph93%30.36 "HgN/A
2:20 am45 °FQuite cool.6 mph93%30.36 "HgN/A
1:50 am45 °FQuite cool.7 mph100%30.36 "HgN/A
1:20 am45 °FQuite cool.6 mph100%30.36 "HgN/A
12:50 am45 °FQuite cool.6 mph100%30.36 "HgN/A
12:20 am46 °FCool.6 mph93%30.36 "HgN/A
11:50 pm
Fri, Sep 18
46 °FPassing clouds.6 mph100%30.36 "HgN/A
11:20 pm48 °FPassing clouds.5 mph87%30.36 "HgN/A
10:50 pm48 °FPassing clouds.3 mph94%30.36 "HgN/A
10:20 pm50 °FPassing clouds.No wind94%30.36 "HgN/A
9:50 pm50 °FPassing clouds.6 mph88%30.36 "HgN/A
9:20 pm50 °FPartly cloudy.5 mph88%30.36 "HgN/A
8:50 pm50 °FPassing clouds.6 mph94%30.36 "HgN/A
8:20 pm52 °FPassing clouds.9 mph88%30.36 "HgN/A
7:50 pm54 °FPassing clouds.6 mph88%30.33 "HgN/A
7:20 pm54 °FScattered clouds.10 mph88%30.33 "HgN/A
6:50 pm54 °FBroken clouds.9 mph94%30.33 "HgN/A
6:20 pm55 °FBroken clouds.9 mph88%30.33 "HgN/A
5:50 pm54 °FBroken clouds.9 mph94%30.33 "HgN/A
5:20 pm54 °FBroken clouds.9 mph100%30.33 "HgN/A
4:50 pm54 °FFog.8 mph100%30.33 "HgN/A
3:50 pm54 °FDrizzle. Broken clouds.8 mph100%30.33 "Hg3 mi
3:20 pm54 °FDrizzle. Fog.9 mph100%30.33 "Hg1 mi
2:50 pm55 °FDrizzle. Fog.7 mph94%30.30 "Hg2 mi
2:20 pm54 °FDrizzle. Broken clouds.7 mph100%30.30 "Hg3 mi
1:50 pm54 °FDrizzle. Fog.9 mph100%30.30 "Hg2 mi
1:20 pm55 °FDrizzle. Broken clouds.12 mph94%30.30 "Hg1 mi
12:50 pm55 °FDrizzle. Fog.14 mph94%30.30 "Hg2 mi
12:20 pm55 °FDrizzle. Fog.15 mph94%30.30 "Hg2 mi
11:50 am55 °FDrizzle. Fog.13 mph94%30.30 "Hg1 mi
11:20 am54 °FDrizzle. Fog.15 mph100%30.30 "Hg1 mi
Weather by CustomWeather, © 2020

See weather overview